Hourly Data Report for March 28, 2012

All times are specified in Local Standard Time (LST). Add 1 hour to adjust for Daylight Saving Time where and when it is observed.

MIRAMICHI RCS
NEW BRUNSWICK

47°00'34.000" N
65°27'54.000" W
33.00 m
8100989
71744
ACQ

Download Data

Hourly Data (March 2012)
Hourly Data Report for March 28, 2012
TIME Temp Definition
°C
Dew Point Temp Definition
°C
Rel Hum Definition
%
Wind Dir Definition
10's deg

Wind Spd Definition
km/h
Visibility Definition
km
Stn Press Definition
kPa
Hmdx Definition


Wind Chill Definition


Weather Definition


00:00 -5.1 -15.6 43 31 9   101.09   -9 LegendNANA
01:00 -5.8 -15.2 47 29 7   101.10   -9 LegendNANA
02:00 -5.6 -15.7 45 31 11   101.07   -10 LegendNANA
03:00 -5.8 -15.5 46 33 11   101.03   -11 LegendNANA
04:00 -6.4 -15.3 49 32 9   101.05   -11 LegendNANA
05:00 -6.7 -15.1 51 32 6   101.06   -10 LegendNANA
06:00 -7.0 -15.0 53 30 2   101.12   -8 LegendNANA
07:00 -6.2 -15.4 48 30 4   101.11   -8 LegendNANA
08:00 -4.8 -15.1 44 33 7   101.08   -8 LegendNANA
09:00 -3.0 -13.8 43 3 13   101.05   -8 LegendNANA
10:00 -1.7 -12.7 43 6 9   100.99   -5 LegendNANA
11:00 -0.7 -12.3 41 6 6   100.93   -3 LegendNANA
12:00 0.4 -11.9 39 7 2   100.85     LegendNANA
13:00 1.5 -9.5 44 10 9   100.76     LegendNANA
14:00 1.8 -10.5 40 8 7   100.70     LegendNANA
15:00 2.1 -9.3 43 10 9   100.63     LegendNANA
16:00 1.8 -7.9 49 7 15   100.59     LegendNANA
17:00 0.6 -7.6 54 5 15   100.60     LegendNANA
18:00 -0.8 -7.3 61 7 15   100.59   -5 LegendNANA
19:00 -1.8 -6.6 70 6 13   100.57   -6 LegendNANA
20:00 -1.8 -6.2 72 8 11   100.56   -6 LegendNANA
21:00 -2.3 -6.3 74 8 9   100.53   -6 LegendNANA
22:00 -2.6 -6.6 74 9 2   100.51   -3 LegendNANA
23:00 -3.4 -6.6 78 5 4   100.52   -5 LegendNANA

Notes on Data Quality.

Legend

  • E = Estimated
  • M = Missing
  • NA = Not Available
Date modified: